Time,TemperatureF,DewpointF,PressureIn,WindDirection,WindDirectionDegrees,WindSpeedMPH,WindSpeedGustMPH,Humidity,HourlyPrecipIn,Conditions,Clouds,dailyrainin,SolarRadiationWatts/m^2,SoftwareType,DateUTC
2013-02-03 00:00:00,8.0,3.0,-100.00,WNW,292,1.0,-999.0,79,-99.99,,,-99.99,0.000000,,2013-02-03 05:00:00,
2013-02-03 00:42:00,8.0,3.0,-100.00,WNW,292,1.0,-999.0,79,-99.99,,,-99.99,0.000000,,2013-02-03 05:42:00,
2013-02-03 00:52:00,8.0,3.0,-100.00,WNW,292,1.0,-999.0,79,-99.99,,,-99.99,0.000000,,2013-02-03 05:52:00,
2013-02-03 01:00:00,8.0,2.0,-100.00,NW,315,3.0,-999.0,77,-99.99,,,-99.99,0.000000,,2013-02-03 06:00:00,
2013-02-03 01:42:00,8.0,2.0,-100.00,NW,315,3.0,-999.0,77,-99.99,,,-99.99,0.000000,,2013-02-03 06:42:00,
2013-02-03 01:52:00,8.0,2.0,-100.00,NW,315,3.0,-999.0,77,-99.99,,,-99.99,0.000000,,2013-02-03 06:52:00,
2013-02-03 02:00:00,8.0,2.0,-100.00,NW,315,1.0,-999.0,77,-99.99,,,-99.99,0.000000,,2013-02-03 07:00:00,
2013-02-03 02:42:00,8.0,2.0,-100.00,NW,315,1.0,-999.0,77,-99.99,,,-99.99,0.000000,,2013-02-03 07:42:00,
2013-02-03 02:52:00,8.0,2.0,-100.00,NW,315,1.0,-999.0,77,-99.99,,,-99.99,0.000000,,2013-02-03 07:52:00,
2013-02-03 04:00:00,6.0,2.0,-100.00,West,270,0.0,-999.0,81,-99.99,,,-99.99,0.000000,,2013-02-03 09:00:00,
2013-02-03 04:42:00,6.0,2.0,-100.00,West,270,0.0,-999.0,81,-99.99,,,-99.99,0.000000,,2013-02-03 09:42:00,
2013-02-03 04:52:00,6.0,2.0,-100.00,West,270,0.0,-999.0,81,-99.99,,,-99.99,0.000000,,2013-02-03 09:52:00,
2013-02-03 05:00:00,7.0,2.0,-100.00,West,270,0.0,-999.0,81,-99.99,,,-99.99,0.000000,,2013-02-03 10:00:00,
2013-02-03 05:42:00,7.0,2.0,-100.00,West,270,0.0,-999.0,81,-99.99,,,-99.99,0.000000,,2013-02-03 10:42:00,
2013-02-03 05:53:00,7.0,2.0,-100.00,West,270,0.0,-999.0,81,-99.99,,,-99.99,0.000000,,2013-02-03 10:53:00,
2013-02-03 06:00:00,7.0,2.0,-100.00,SW,225,0.0,-999.0,81,-99.99,,,-99.99,0.000000,,2013-02-03 11:00:00,
2013-02-03 06:42:00,7.0,2.0,-100.00,SW,225,0.0,-999.0,81,-99.99,,,-99.99,0.000000,,2013-02-03 11:42:00,
2013-02-03 06:52:00,7.0,2.0,-100.00,SW,225,0.0,-999.0,81,-99.99,,,-99.99,0.000000,,2013-02-03 11:52:00,
2013-02-03 07:00:00,7.0,4.0,-100.00,South,180,2.0,-999.0,84,-99.99,,,-99.99,0.000000,,2013-02-03 12:00:00,
2013-02-03 07:42:00,7.0,4.0,-100.00,South,180,2.0,-999.0,84,-99.99,,,-99.99,0.000000,,2013-02-03 12:42:00,
2013-02-03 07:53:00,7.0,4.0,-100.00,South,180,2.0,-999.0,84,-99.99,,,-99.99,0.000000,,2013-02-03 12:53:00,
2013-02-03 08:00:00,9.0,4.0,-100.00,South,180,4.0,-999.0,82,-99.99,,,-99.99,1.160000,,2013-02-03 13:00:00,
2013-02-03 08:32:00,9.0,4.0,-100.00,South,180,4.0,-999.0,82,-99.99,,,-99.99,1.160000,,2013-02-03 13:32:00,
2013-02-03 08:42:00,9.0,4.0,-100.00,South,180,4.0,-999.0,82,-99.99,,,-99.99,1.160000,,2013-02-03 13:42:00,
2013-02-03 08:52:00,9.0,4.0,-100.00,South,180,4.0,-999.0,82,-99.99,,,-99.99,1.160000,,2013-02-03 13:52:00,
2013-02-03 09:00:00,10.0,5.0,-100.00,SSW,202,5.0,-999.0,78,-99.99,,,-99.99,40.599998,,2013-02-03 14:00:00,
2013-02-03 09:42:00,10.0,5.0,-100.00,SSW,202,5.0,-999.0,78,-99.99,,,-99.99,40.599998,,2013-02-03 14:42:00,
2013-02-03 09:52:00,10.0,5.0,-100.00,SSW,202,5.0,-999.0,78,-99.99,,,-99.99,40.599998,,2013-02-03 14:52:00,
2013-02-03 10:00:00,12.0,6.0,-100.00,SW,225,8.0,-999.0,74,-99.99,,,-99.99,142.679993,,2013-02-03 15:00:00,
2013-02-03 10:42:00,12.0,6.0,-100.00,SW,225,8.0,-999.0,74,-99.99,,,-99.99,142.679993,,2013-02-03 15:42:00,
2013-02-03 10:52:00,12.0,6.0,-100.00,SW,225,8.0,-999.0,74,-99.99,,,-99.99,142.679993,,2013-02-03 15:52:00,
2013-02-03 11:00:00,14.0,8.0,-100.00,SW,225,10.0,-999.0,76,-99.99,,,-99.99,285.359985,,2013-02-03 16:00:00,
2013-02-03 11:42:00,14.0,8.0,-100.00,SW,225,10.0,-999.0,76,-99.99,,,-99.99,285.359985,,2013-02-03 16:42:00,
2013-02-03 11:52:00,14.0,8.0,-100.00,SW,225,10.0,-999.0,76,-99.99,,,-99.99,285.359985,,2013-02-03 16:52:00,
2013-02-03 12:00:00,14.0,9.0,-100.00,SW,225,10.0,-999.0,78,-99.99,,,-99.99,272.600006,,2013-02-03 17:00:00,
2013-02-03 12:42:00,14.0,9.0,-100.00,SW,225,10.0,-999.0,78,-99.99,,,-99.99,272.600006,,2013-02-03 17:42:00,
2013-02-03 12:52:00,14.0,9.0,-100.00,SW,225,10.0,-999.0,78,-99.99,,,-99.99,272.600006,,2013-02-03 17:52:00,
2013-02-03 13:00:00,16.0,10.0,-100.00,SW,225,11.0,-999.0,78,-99.99,,,-99.99,315.519989,,2013-02-03 18:00:00,
2013-02-03 13:42:00,16.0,10.0,-100.00,SW,225,11.0,-999.0,78,-99.99,,,-99.99,315.519989,,2013-02-03 18:42:00,
2013-02-03 13:52:00,16.0,10.0,-100.00,SW,225,11.0,-999.0,78,-99.99,,,-99.99,315.519989,,2013-02-03 18:52:00,
2013-02-03 14:00:00,17.0,12.0,-100.00,SW,225,10.0,-999.0,79,-99.99,,,-99.99,278.399994,,2013-02-03 19:00:00,
2013-02-03 14:42:00,17.0,12.0,-100.00,SW,225,10.0,-999.0,79,-99.99,,,-99.99,278.399994,,2013-02-03 19:42:00,
2013-02-03 14:52:00,17.0,12.0,-100.00,SW,225,10.0,-999.0,79,-99.99,,,-99.99,278.399994,,2013-02-03 19:52:00,
2013-02-03 15:00:00,17.0,12.0,-100.00,SW,225,10.0,-999.0,77,-99.99,,,-99.99,212.279999,,2013-02-03 20:00:00,
2013-02-03 15:42:00,17.0,12.0,-100.00,SW,225,10.0,-999.0,77,-99.99,,,-99.99,212.279999,,2013-02-03 20:42:00,
2013-02-03 15:52:00,17.0,12.0,-100.00,SW,225,10.0,-999.0,77,-99.99,,,-99.99,212.279999,,2013-02-03 20:52:00,
2013-02-03 16:00:00,18.0,13.0,-100.00,WSW,247,10.0,-999.0,80,-99.99,,,-99.99,148.479996,,2013-02-03 21:00:00,
2013-02-03 16:42:00,18.0,13.0,-100.00,WSW,247,10.0,-999.0,80,-99.99,,,-99.99,148.479996,,2013-02-03 21:42:00,
2013-02-03 16:52:00,18.0,13.0,-100.00,WSW,247,10.0,-999.0,80,-99.99,,,-99.99,148.479996,,2013-02-03 21:52:00,
2013-02-03 17:00:00,18.0,10.0,-100.00,WSW,247,13.0,-999.0,67,-99.99,,,-99.99,84.680000,,2013-02-03 22:00:00,
2013-02-03 17:42:00,18.0,10.0,-100.00,WSW,247,13.0,-999.0,67,-99.99,,,-99.99,84.680000,,2013-02-03 22:42:00,
2013-02-03 17:52:00,18.0,10.0,-100.00,WSW,247,13.0,-999.0,67,-99.99,,,-99.99,84.680000,,2013-02-03 22:52:00,
2013-02-03 18:00:00,17.0,11.0,-100.00,West,270,14.0,-999.0,76,-99.99,,,-99.99,11.600000,,2013-02-03 23:00:00,
2013-02-03 18:42:00,17.0,11.0,-100.00,West,270,14.0,-999.0,76,-99.99,,,-99.99,11.600000,,2013-02-03 23:42:00,
2013-02-03 18:52:00,17.0,11.0,-100.00,West,270,14.0,-999.0,76,-99.99,,,-99.99,11.600000,,2013-02-03 23:52:00,
2013-02-03 19:00:00,15.0,7.0,-100.00,West,270,9.0,-999.0,68,-99.99,,,-99.99,0.000000,,2013-02-04 00:00:00,
2013-02-03 19:42:00,15.0,7.0,-100.00,West,270,9.0,-999.0,68,-99.99,,,-99.99,0.000000,,2013-02-04 00:42:00,
2013-02-03 19:52:00,15.0,7.0,-100.00,West,270,9.0,-999.0,68,-99.99,,,-99.99,0.000000,,2013-02-04 00:52:00,
2013-02-03 20:00:00,14.0,5.0,-100.00,WSW,247,9.0,-999.0,67,-99.99,,,-99.99,0.000000,,2013-02-04 01:00:00,
2013-02-03 20:42:00,14.0,5.0,-100.00,WSW,247,9.0,-999.0,67,-99.99,,,-99.99,0.000000,,2013-02-04 01:42:00,
2013-02-03 20:52:00,14.0,5.0,-100.00,WSW,247,9.0,-999.0,67,-99.99,,,-99.99,0.000000,,2013-02-04 01:52:00,
2013-02-03 21:00:00,12.0,5.0,-100.00,WSW,247,7.0,-999.0,72,-99.99,,,-99.99,0.000000,,2013-02-04 02:00:00,
2013-02-03 21:42:00,12.0,5.0,-100.00,WSW,247,7.0,-999.0,72,-99.99,,,-99.99,0.000000,,2013-02-04 02:42:00,
2013-02-03 21:52:00,12.0,5.0,-100.00,WSW,247,7.0,-999.0,72,-99.99,,,-99.99,0.000000,,2013-02-04 02:52:00,
2013-02-03 22:00:00,12.0,6.0,-100.00,WSW,247,7.0,-999.0,78,-99.99,,,-99.99,0.000000,,2013-02-04 03:00:00,
2013-02-03 22:42:00,12.0,6.0,-100.00,WSW,247,7.0,-999.0,78,-99.99,,,-99.99,0.000000,,2013-02-04 03:42:00,
2013-02-03 22:52:00,12.0,6.0,-100.00,WSW,247,7.0,-999.0,78,-99.99,,,-99.99,0.000000,,2013-02-04 03:52:00,
2013-02-03 23:00:00,12.0,7.0,-100.00,WSW,247,8.0,-999.0,80,-99.99,,,-99.99,0.000000,,2013-02-04 04:00:00,
2013-02-03 23:32:00,12.0,7.0,-100.00,WSW,247,8.0,-999.0,80,-99.99,,,-99.99,0.000000,,2013-02-04 04:32:00,
2013-02-03 23:42:00,12.0,7.0,-100.00,WSW,247,8.0,-999.0,80,-99.99,,,-99.99,0.000000,,2013-02-04 04:42:00,
2013-02-03 23:52:00,12.0,7.0,-100.00,WSW,247,8.0,-999.0,80,-99.99,,,-99.99,0.000000,,2013-02-04 04:52:00,